Regional Weather Roundup
Issued by NWS Little Rock, AR

Home | Current Version | Previous Version | Text Only | Print | Product List | Glossary On
Versions: 1 2 3 4 5 6 7 8 9 10 11 12 13 14 15 16 17 18 19 20 21 22 23 24 25 26 27 28 29 30 31 32 33 34 35 36 37 38 39 40 41 42 43 44 45 46 47 48 49 50
000
ASUS44 KLZK 211505
RWRLZK

WEATHER ROUNDUP FOR ARKANSAS
NATIONAL WEATHER SERVICE LITTLE ROCK AR
1000 AM CDT TUE OCT 21 2014

NOTE: "FAIR" INDICATES FEW OR NO CLOUDS BELOW 12,000 FEET WITH NO
SIGNIFICANT WEATHER AND/OR OBSTRUCTIONS TO VISIBILITY.

ARZ001-003-010-029-211600-
NORTHWEST ARKANSAS

CITY           SKY/WX    TMP DP  RH WIND       PRES   REMARKS
FAYETTEVILLE   CLOUDY    51  51 100 CALM      30.16R FOG
FORT SMITH     SUNNY     64  58  80 E6        30.14R
HARRISON       SUNNY     63  56  78 CALM      30.15S
BENTONVILLE    CLOUDY    55  54  94 S3        30.16S VSB<1/4
ROGERS         CLOUDY    56  55  97 S3        30.17R VSB<1/4
SILOAM SPGS    CLOUDY    57  52  82 E5        30.17R VSB 1/2
HIGHFILL       FOG       53  53 100 CALM      30.15R VSB<1/4
SPRINGDALE     FOG       55  55 100 SE3       30.18R VSB 1/4
$$

ARZ004-005-016-211600-
NORTH CENTRAL ARKANSAS

CITY           SKY/WX    TMP DP  RH WIND       PRES   REMARKS
BATESVILLE     SUNNY     61  57  88 W5        30.13R
FLIPPIN        CLOUDY    54  48  82 CALM      30.15S VSB<1/4
MTN HOME       FOG       55  55 100 SW3       30.15R VSB<1/4
$$

ARZ040-041-211600-
WEST CENTRAL ARKANSAS

CITY           SKY/WX    TMP DP  RH WIND       PRES   REMARKS
MENA           PTSUNNY   64  61  88 CALM      30.15S
MOUNT IDA      SUNNY     64  60  87 NW3       30.13R
$$

ARZ009-017-025-026-028-211600-
NORTHEAST ARKANSAS

CITY           SKY/WX    TMP DP  RH WIND       PRES   REMARKS
CORNING        FAIR      63  54  72 N5        30.13S
JONESBORO      SUNNY     65  52  62 CALM      30.11R
NEWPORT        SUNNY     63  54  72 CALM      30.13R
WALNUT RIDGE   SUNNY     61  52  72 N3        30.12R
BLYTHEVILLE    SUNNY     67  54  63 VRB3      30.11R
NW BLYTHEVILLE SUNNY     64  52  63 CALM      30.11R
$$

ARZ022-023-033-042-044-211600-
CENTRAL ARKANSAS

CITY           SKY/WX    TMP DP  RH WIND       PRES   REMARKS
LITTLE ROCK    SUNNY     68  55  63 NE5       30.13S
N LITTLE ROCK  SUNNY     66  57  73 N3        30.13S
JACKSONVILLE   SUNNY     65  55  71 VRB2      30.13R
SEARCY         SUNNY     66  52  60 CALM      30.14R
HOT SPRINGS    FOG       59  59 100 W5        30.14R VSB 1/2
RUSSELLVILLE   FOG       57  56  96 CALM      30.15R VSB 1/4
$$

ARZ036-211600-
EAST ARKANSAS

CITY           SKY/WX    TMP DP  RH WIND       PRES   REMARKS
WEST MEMPHIS   SUNNY     67  54  63 E5        30.10R
$$

ARZ050-053-066-070-073-211600-
SOUTHWEST ARKANSAS

CITY           SKY/WX    TMP DP  RH WIND       PRES   REMARKS
ARKADELPHIA    FAIR      67  63  87 CALM      30.14R
CAMDEN         PTSUNNY   64  59  82 CALM      30.13R
TEXARKANA      SUNNY     70  57  63 CALM      30.13R
EL DORADO      MOSUNNY   65  59  81 CALM      30.14R
DE QUEEN       SUNNY     64  61  90 CALM      30.11F
$$

ARZ056-057-069-211600-
SOUTHEAST ARKANSAS

CITY           SKY/WX    TMP DP  RH WIND       PRES   REMARKS
PINE BLUFF     SUNNY     65  58  78 N6        30.13R
STUTTGART      SUNNY     63  57  82 N5        30.13S
MONTICELLO     SUNNY     67  59  75 CALM      30.12R

$$




USA.gov is the U.S. government's official web portal to all federal, state and local government web resources and services.